To NAV CANADA Home Page Login to a new session Search on AWWS site Feedback and Comments Disclaimer Vers la page française équivalente Tips FAQ What's new on the site To the Forecasts and Observations / NOTAM section To "File a Flight Plan" website Publications and other links Update of the User's profile FIC Telephone Numbers My Weather Data Folder Route Weather Data Regional Weather Data Local Weather Data To the Forecasts and Observations / NOTAM section
Request Generated 02/23/2017 at 20:45:39 UTC . Weather information available at that time is displayed.

METAR/TAF

AUPALUK/QC    

LWIS CYLA 232000Z AUTO 31006KT M23/M27 A2995=
LWIS CYLA 231900Z AUTO 32006KT M23/M27 A2995=
LWIS CYLA 231800Z AUTO 33010KT M23/M28 A2995=

CYLA - No TAF is issued for this station

Your time UTC time
Weather data provided by Environment Canada and NAV CANADA